Location: Casco Millpond
(44.5581°N, 87.6111°W)
Time: 09:25:26
(UTC+00:00)

Cosmos 1763 Rocket - Pass Details

Date: 16 January 2026
Orbit: 729 x 773 km, 74.0° (Epoch: 10 February)

Event Time Altitude Azimuth Distance (km) Brightness Sun altitude
Exits shadow 12:32:42 - 335° (NNW) 3,004 6.1 -9.0°
Reaches altitude 10° 12:34:40 10° 332° (NNW) 2,237 5.5 -8.6°
Maximum altitude 12:39:38 59° 254° (WSW) 845 3.5 -7.8°
Drops below altitude 10° 12:44:36 10° 175° (S) 2,238 6.3 -7.0°
Sets 12:46:58 0° 172° (S) 3,163 7.2 -6.6°
